| time (UTC) | temp F | wind direction | speed MPH | gust MPH | rain 1hr in | rain 24hr in | rain mn in | humidity % | barometer mb |
| 20260505034559 | 72 | 210 | 0.0 | 1.0 | 0.00 | 0.00 | 0.00 | 21 | 1009.5 |
| 20260505033952 | 71 | 214 | 0.0 | 1.0 | 0.00 | 0.00 | 0.00 | 21 | 1009.9 |
| 20260505033353 | 72 | 183 | 0.0 | 2.0 | 0.00 | 0.00 | 0.00 | 21 | 1009.9 |
| 20260505032849 | 72 | 192 | 0.0 | 6.0 | 0.00 | 0.00 | 0.00 | 21 | 1009.9 |
| 20260505032240 | 72 | 217 | 2.0 | 7.0 | 0.00 | 0.00 | 0.00 | 21 | 1009.5 |
| 20260505031906 | 72 | 231 | 1.0 | 7.0 | 0.00 | 0.00 | 0.00 | 21 | 1009.5 |
| 20260505031047 | 72 | 214 | 0.0 | 8.0 | 0.00 | 0.00 | 0.00 | 21 | 1009.5 |
| 20260505030454 | 72 | 235 | 1.0 | 3.0 | 0.00 | 0.00 | 0.00 | 21 | 1009.5 |
| 20260505025840 | 71 | 182 | 0.0 | 9.0 | 0.00 | 0.00 | 0.00 | 22 | 1009.5 |
| 20260505025750 | 71 | 207 | 4.0 | 9.0 | 0.00 | 0.00 | 0.00 | 22 | 1009.5 |
| 20260505024745 | 71 | 215 | 1.0 | 7.0 | 0.00 | 0.00 | 0.00 | 22 | 1009.5 |
| 20260505024234 | 71 | 211 | 0.0 | 2.0 | 0.00 | 0.00 | 0.00 | 23 | 1009.5 |
| 20260505024207 | 71 | 217 | 0.0 | 4.0 | 0.00 | 0.00 | 0.00 | 23 | 1009.5 |
| 20260505023207 | 71 | 198 | 0.0 | 4.0 | 0.00 | 0.00 | 0.00 | 23 | 1009.5 |
| 20260505022653 | 72 | 209 | 0.0 | 3.0 | 0.00 | 0.00 | 0.00 | 23 | 1009.5 |
| 20260505022140 | 72 | 197 | 0.0 | 3.0 | 0.00 | 0.00 | 0.00 | 23 | 1009.2 |
| 20260505021628 | 72 | 210 | 0.0 | 2.0 | 0.00 | 0.00 | 0.00 | 23 | 1009.2 |
| 20260505021109 | 73 | 193 | 0.0 | 2.0 | 0.00 | 0.00 | 0.00 | 23 | 1009.2 |
| 20260505021050 | 73 | 220 | 1.0 | 3.0 | 0.00 | 0.00 | 0.00 | 22 | 1009.2 |
| 20260505020049 | 73 | 187 | 0.0 | 4.0 | 0.00 | 0.00 | 0.00 | 22 | 1008.9 |
| 20260505015537 | 73 | 210 | 0.0 | 4.0 | 0.00 | 0.00 | 0.00 | 22 | 1008.9 |
| 20260505015024 | 74 | 230 | 1.0 | 3.0 | 0.00 | 0.00 | 0.00 | 22 | 1008.9 |
| 20260505014510 | 74 | 209 | 1.0 | 4.0 | 0.00 | 0.00 | 0.00 | 22 | 1008.9 |
| 20260505014010 | 74 | 222 | 0.0 | 10.0 | 0.00 | 0.00 | 0.00 | 22 | 1008.9 |
| 20260505013508 | 74 | 204 | 0.0 | 10.0 | 0.00 | 0.00 | 0.00 | 21 | 1008.9 |
| 20260505013007 | 75 | 210 | 0.0 | 6.0 | 0.00 | 0.00 | 0.00 | 21 | 1009.2 |
| 20260505012453 | 75 | 212 | 0.0 | 3.0 | 0.00 | 0.00 | 0.00 | 21 | 1009.2 |
| 20260505011940 | 75 | 194 | 0.0 | 3.0 | 0.00 | 0.00 | 0.00 | 21 | 1009.5 |
| 20260505011437 | 75 | 217 | 0.0 | 7.0 | 0.00 | 0.00 | 0.00 | 20 | 1008.9 |
| 20260505010930 | 76 | 224 | 2.0 | 9.0 | 0.00 | 0.00 | 0.00 | 20 | 1009.2 |
| 20260505010640 | 76 | 227 | 3.0 | 9.0 | 0.00 | 0.00 | 0.00 | 20 | 1008.9 |
| 20260505005904 | 76 | 209 | 1.0 | 17.0 | 0.00 | 0.00 | 0.00 | 20 | 1009.2 |
| 20260505005350 | 76 | 173 | 9.0 | 17.0 | 0.00 | 0.00 | 0.00 | 20 | 1009.2 |
| 20260505004838 | 76 | 205 | 1.0 | 14.0 | 0.00 | 0.00 | 0.00 | 20 | 1008.9 |
| 20260505004325 | 76 | 208 | 0.0 | 14.0 | 0.00 | 0.00 | 0.00 | 20 | 1009.2 |
| 20260505003810 | 76 | 213 | 5.0 | 14.0 | 0.00 | 0.00 | 0.00 | 20 | 1009.2 |
| 20260505003258 | 77 | 229 | 1.0 | 15.0 | 0.00 | 0.00 | 0.00 | 20 | 1009.5 |
| 20260505002744 | 77 | 206 | 1.0 | 16.0 | 0.00 | 0.00 | 0.00 | 20 | 1009.2 |
| 20260505002229 | 77 | 225 | 9.0 | 18.0 | 0.00 | 0.00 | 0.00 | 19 | 1009.2 |
| 20260505001708 | 77 | 209 | 2.0 | 18.0 | 0.00 | 0.00 | 0.00 | 19 | 1009.5 |
| 20260505001208 | 78 | 270 | 2.0 | 14.0 | 0.00 | 0.00 | 0.00 | 19 | 1009.2 |
| 20260505000708 | 78 | 205 | 0.0 | 10.0 | 0.00 | 0.00 | 0.00 | 18 | 1009.5 |
| 20260505000211 | 78 | 219 | 0.0 | 4.0 | 0.00 | 0.00 | 0.00 | 14 | 1009.5 |
| 20260504235657 | 79 | 231 | 0.0 | 3.0 | 0.00 | 0.00 | 0.00 | 13 | 1009.2 |
| 20260504235145 | 79 | 195 | 0.0 | 3.0 | 0.00 | 0.00 | 0.00 | 12 | 1009.5 |
| 20260504234632 | 79 | 179 | 0.0 | 2.0 | 0.00 | 0.00 | 0.00 | 13 | 1009.5 |
| 20260504234109 | 79 | 197 | 0.0 | 2.0 | 0.00 | 0.00 | 0.00 | 13 | 1009.5 |
| 20260504233605 | 79 | 214 | 0.0 | 1.0 | 0.00 | 0.00 | 0.00 | 12 | 1009.5 |
| 20260504233052 | 79 | 183 | 0.0 | 2.0 | 0.00 | 0.00 | 0.00 | 12 | 1009.5 |
| 20260504232539 | 79 | 189 | 0.0 | 2.0 | 0.00 | 0.00 | 0.00 | 12 | 1009.5 |
| 20260504232027 | 79 | 208 | 0.0 | 2.0 | 0.00 | 0.00 | 0.00 | 14 | 1009.9 |
| 20260504231513 | 79 | 196 | 0.0 | 7.0 | 0.00 | 0.00 | 0.00 | 12 | 1009.9 |
| 20260504231001 | 79 | 244 | 0.0 | 7.0 | 0.00 | 0.00 | 0.00 | 12 | 1009.5 |
| 20260504230710 | 79 | 228 | 0.0 | 4.0 | 0.00 | 0.00 | 0.00 | 12 | 1009.5 |
| 20260504230157 | 79 | 243 | 0.0 | 1.0 | 0.00 | 0.00 | 0.00 | 12 | 1009.5 |
| 20260504225427 | 79 | 285 | 0.0 | 3.0 | 0.00 | 0.00 | 0.00 | 12 | 1009.5 |
| 20260504225145 | 80 | 211 | 0.0 | 3.0 | 0.00 | 0.00 | 0.00 | 11 | 1009.5 |
| 20260504224406 | 80 | 231 | 1.0 | 4.0 | 0.00 | 0.00 | 0.00 | 11 | 1009.5 |
| 20260504223853 | 80 | 231 | 1.0 | 11.0 | 0.00 | 0.00 | 0.00 | 11 | 1009.5 |
| 20260504223605 | 81 | 223 | 1.0 | 14.0 | 0.00 | 0.00 | 0.00 | 11 | 1009.5 |
| 20260504223056 | 81 | 215 | 0.0 | 14.0 | 0.00 | 0.00 | 0.00 | 11 | 1009.5 |
| 20260504222324 | 81 | 231 | 3.0 | 13.0 | 0.00 | 0.00 | 0.00 | 11 | 1009.9 |
| 20260504221810 | 80 | 235 | 0.0 | 13.0 | 0.00 | 0.00 | 0.00 | 12 | 1009.9 |
| 20260504221303 | 80 | 217 | 0.0 | 4.0 | 0.00 | 0.00 | 0.00 | 11 | 1010.2 |
| 20260504221017 | 80 | 246 | 0.0 | 6.0 | 0.00 | 0.00 | 0.00 | 12 | 1009.5 |
| 20260504220242 | 80 | 228 | 0.0 | 7.0 | 0.00 | 0.00 | 0.00 | 12 | 1009.9 |
| 20260504215733 | 81 | 235 | 0.0 | 7.0 | 0.00 | 0.00 | 0.00 | 12 | 1009.9 |
| 20260504215440 | 81 | 235 | 0.0 | 1.0 | 0.00 | 0.00 | 0.00 | 12 | 1009.9 |
| 20260504214710 | 81 | 251 | 0.0 | 8.0 | 0.00 | 0.00 | 0.00 | 12 | 1009.9 |
| 20260504214209 | 81 | 216 | 4.0 | 8.0 | 0.00 | 0.00 | 0.00 | 12 | 1009.9 |
| 20260504213708 | 81 | 212 | 0.0 | 8.0 | 0.00 | 0.00 | 0.00 | 12 | 1010.2 |
| 20260504213210 | 81 | 218 | 1.0 | 4.0 | 0.00 | 0.00 | 0.00 | 12 | 1010.2 |
| 20260504212705 | 81 | 219 | 0.0 | 10.0 | 0.00 | 0.00 | 0.00 | 12 | 1009.9 |
| 20260504212156 | 81 | 186 | 0.0 | 13.0 | 0.00 | 0.00 | 0.00 | 13 | 1009.9 |
| 20260504211645 | 81 | 226 | 0.0 | 13.0 | 0.00 | 0.00 | 0.00 | 13 | 1009.9 |
| 20260504211135 | 81 | 229 | 6.0 | 11.0 | 0.00 | 0.00 | 0.00 | 13 | 1010.2 |
| 20260504210611 | 82 | 226 | 0.0 | 4.0 | 0.00 | 0.00 | 0.00 | 13 | 1010.2 |
| 20260504210059 | 82 | 199 | 2.0 | 10.0 | 0.00 | 0.00 | 0.00 | 13 | 1010.6 |
| 20260504205549 | 82 | 209 | 0.0 | 16.0 | 0.00 | 0.00 | 0.00 | 13 | 1010.2 |
| 20260504205039 | 83 | 222 | 10.0 | 16.0 | 0.00 | 0.00 | 0.00 | 13 | 1010.2 |
| 20260504204529 | 83 | 189 | 0.0 | 2.0 | 0.00 | 0.00 | 0.00 | 13 | 1010.6 |
| 20260504204018 | 84 | 226 | 0.0 | 4.0 | 0.00 | 0.00 | 0.00 | 13 | 1010.6 |
| 20260504203508 | 84 | 199 | 0.0 | 10.0 | 0.00 | 0.00 | 0.00 | 14 | 1010.6 |
| 20260504203008 | 84 | 183 | 0.0 | 10.0 | 0.00 | 0.00 | 0.00 | 15 | 1010.6 |
| 20260504202501 | 85 | 180 | 0.0 | 4.0 | 0.00 | 0.00 | 0.00 | 14 | 1010.6 |
| 20260504201952 | 85 | 213 | 0.0 | 10.0 | 0.00 | 0.00 | 0.00 | 16 | 1010.6 |
| 20260504201441 | 85 | 209 | 4.0 | 10.0 | 0.00 | 0.00 | 0.00 | 15 | 1010.6 |
| 20260504200933 | 84 | 303 | 0.0 | 6.0 | 0.00 | 0.00 | 0.00 | 20 | 1010.6 |
| 20260504200422 | 84 | 184 | 0.0 | 4.0 | 0.00 | 0.00 | 0.00 | 20 | 1010.6 |
| 20260504195909 | 83 | 229 | 0.0 | 6.0 | 0.00 | 0.00 | 0.00 | 20 | 1011.2 |
| 20260504195400 | 83 | 199 | 0.0 | 6.0 | 0.00 | 0.00 | 0.00 | 21 | 1010.9 |
| 20260504194850 | 83 | 339 | 0.0 | 7.0 | 0.00 | 0.00 | 0.00 | 23 | 1010.9 |
| 20260504194340 | 83 | 218 | 0.0 | 7.0 | 0.00 | 0.00 | 0.00 | 23 | 1011.2 |
| 20260504193831 | 83 | 216 | 0.0 | 9.0 | 0.00 | 0.00 | 0.00 | 22 | 1011.2 |
| 20260504193308 | 82 | 223 | 0.0 | 9.0 | 0.00 | 0.00 | 0.00 | 22 | 1011.2 |
| 20260504192807 | 82 | 204 | 1.0 | 13.0 | 0.00 | 0.00 | 0.00 | 23 | 1011.6 |
| 20260504192755 | 82 | 204 | 6.0 | 13.0 | 0.00 | 0.00 | 0.00 | 22 | 1011.6 |
| 20260504191809 | 82 | 227 | 3.0 | 13.0 | 0.00 | 0.00 | 0.00 | 22 | 1011.6 |
| 20260504191257 | 82 | 231 | 0.0 | 2.0 | 0.00 | 0.00 | 0.00 | 22 | 1011.6 |
| 20260504190747 | 82 | 195 | 0.0 | 1.0 | 0.00 | 0.00 | 0.00 | 23 | 1011.6 |
| 20260504190238 | 81 | 190 | 0.0 | 10.0 | 0.00 | 0.00 | 0.00 | 24 | 1011.6 |
| 20260504185736 | 82 | 181 | 4.0 | 10.0 | 0.00 | 0.00 | 0.00 | 23 | 1011.9 |
| 20260504185231 | 82 | 224 | 0.0 | 9.0 | 0.00 | 0.00 | 0.00 | 22 | 1011.9 |
| 20260504184722 | 83 | 178 | 0.0 | 9.0 | 0.00 | 0.00 | 0.00 | 23 | 1011.9 |
| 20260504184210 | 83 | 199 | 0.0 | 2.0 | 0.00 | 0.00 | 0.00 | 22 | 1011.9 |
| 20260504183710 | 83 | 215 | 0.0 | 2.0 | 0.00 | 0.00 | 0.00 | 23 | 1012.3 |
| 20260504183208 | 82 | 206 | 1.0 | 13.0 | 0.00 | 0.00 | 0.00 | 22 | 1012.3 |
| 20260504182919 | 82 | 263 | 2.0 | 13.0 | 0.00 | 0.00 | 0.00 | 21 | 1011.9 |
| 20260504182145 | 83 | 212 | 0.0 | 6.0 | 0.00 | 0.00 | 0.00 | 21 | 1011.9 |
| 20260504181635 | 83 | 224 | 0.0 | 1.0 | 0.00 | 0.00 | 0.00 | 22 | 1011.9 |
| 20260504181108 | 82 | 219 | 0.0 | 1.0 | 0.00 | 0.00 | 0.00 | 23 | 1012.3 |
| 20260504180609 | 82 | 198 | 0.0 | 0.0 | 0.00 | 0.00 | 0.00 | 26 | 1012.3 |
| 20260504180105 | 83 | 260 | 0.0 | 3.0 | 0.00 | 0.00 | 0.00 | 24 | 1012.6 |
| 20260504175555 | 82 | 247 | 2.0 | 3.0 | 0.00 | 0.00 | 0.00 | 25 | 1012.6 |
| 20260504175044 | 82 | 225 | 0.0 | 2.0 | 0.00 | 0.00 | 0.00 | 26 | 1012.9 |
| 20260504174535 | 81 | 232 | 0.0 | 7.0 | 0.00 | 0.00 | 0.00 | 27 | 1012.9 |
| 20260504174025 | 81 | 272 | 0.0 | 8.0 | 0.00 | 0.00 | 0.00 | 28 | 1012.6 |
| 20260504173508 | 81 | 182 | 5.0 | 8.0 | 0.00 | 0.00 | 0.00 | 27 | 1012.9 |
| 20260504173005 | 79 | 202 | 0.0 | 4.0 | 0.00 | 0.00 | 0.00 | 30 | 1012.9 |
| 20260504172453 | 80 | 193 | 0.0 | 9.0 | 0.00 | 0.00 | 0.00 | 28 | 1012.9 |
| 20260504171943 | 80 | 244 | 2.0 | 9.0 | 0.00 | 0.00 | 0.00 | 29 | 1012.9 |
| 20260504171442 | 79 | 182 | 0.0 | 1.0 | 0.00 | 0.00 | 0.00 | 29 | 1012.6 |
| 20260504170937 | 80 | 239 | 0.0 | 0.0 | 0.00 | 0.00 | 0.00 | 29 | 1013.3 |
| 20260504170427 | 79 | 211 | 0.0 | 4.0 | 0.00 | 0.00 | 0.00 | 30 | 1013.3 |
| 20260504151108 | 71 | 239 | 0.0 | 0.0 | 0.00 | 0.00 | 0.00 | 43 | 1013.9 |
| 20260504150608 | 70 | 238 | 0.0 | 0.0 | 0.00 | 0.00 | 0.00 | 45 | 1013.6 |
| 20260504140937 | 61 | 222 | 0.0 | 0.0 | 0.00 | 0.00 | 0.00 | 61 | 1013.9 |
| 20260504140426 | 60 | 212 | 0.0 | 4.0 | 0.00 | 0.00 | 0.00 | 62 | 1013.6 |
| 20260504130808 | 58 | 218 | 0.0 | 0.0 | 0.00 | 0.00 | 0.00 | 65 | 1013.3 |
| 20260504130519 | 58 | 223 | 0.0 | 2.0 | 0.00 | 0.00 | 0.00 | 65 | 1013.3 |
| 20260504110405 | 56 | 215 | 0.0 | 0.0 | 0.00 | 0.00 | 0.00 | 66 | 1012.6 |
| 20260504100209 | 57 | 212 | 0.0 | 4.0 | 0.00 | 0.00 | 0.00 | 64 | 1012.9 |
| 20260504081846 | 57 | 192 | 0.0 | 3.0 | 0.00 | 0.00 | 0.00 | 62 | 1013.9 |
| 20260504081335 | 57 | 197 | 0.0 | 1.0 | 0.00 | 0.00 | 0.00 | 63 | 1013.9 |
| 20260504080822 | 57 | 196 | 0.0 | 1.0 | 0.00 | 0.00 | 0.00 | 63 | 1013.9 |
| 20260504080310 | 58 | 196 | 0.0 | 4.0 | 0.00 | 0.00 | 0.00 | 62 | 1013.9 |
| 20260504070131 | 59 | 224 | 6.0 | 11.0 | 0.00 | 0.00 | 0.00 | 60 | 1015.0 |
| 20260504050731 | 58 | 197 | 0.0 | 0.0 | 0.00 | 0.00 | 0.00 | 59 | 1015.0 |
| 20260504050228 | 58 | 195 | 0.0 | 0.0 | 0.00 | 0.00 | 0.00 | 59 | 1015.6 |
| 20260504045725 | 58 | 192 | 0.0 | 0.0 | 0.00 | 0.00 | 0.00 | 58 | 1015.3 |
| 20260504045208 | 59 | 188 | 0.0 | 0.0 | 0.00 | 0.00 | 0.00 | 57 | 1015.3 |
| 20260504044709 | 59 | 153 | 0.0 | 2.0 | 0.00 | 0.00 | 0.00 | 57 | 1015.3 |
| 20260504044427 | 59 | 149 | 0.0 | 2.0 | 0.00 | 0.00 | 0.00 | 56 | 1015.3 |
| 20260504043708 | 60 | 152 | 0.0 | 0.0 | 0.00 | 0.00 | 0.00 | 55 | 1015.3 |
| 20260504043210 | 60 | 152 | 0.0 | 0.0 | 0.00 | 0.00 | 0.00 | 54 | 1015.3 |
| 20260504042708 | 60 | 147 | 0.0 | 0.0 | 0.00 | 0.00 | 0.00 | 54 | 1015.3 |
| 20260504042206 | 60 | 159 | 0.0 | 1.0 | 0.00 | 0.00 | 0.00 | 53 | 1015.3 |
| 20260504041657 | 61 | 160 | 0.0 | 1.0 | 0.00 | 0.00 | 0.00 | 52 | 1015.3 |
| 20260504041623 | 61 | 147 | 0.0 | 1.0 | 0.00 | 0.00 | 0.00 | 51 | 1015.3 |
| 20260504040632 | 62 | 144 | 0.0 | 7.0 | 0.00 | 0.00 | 0.00 | 50 | 1015.3 |
| 20260504040110 | 61 | 139 | 0.0 | 7.0 | 0.00 | 0.00 | 0.00 | 50 | 1015.3 |
| 20260504035607 | 61 | 148 | 0.0 | 1.0 | 0.00 | 0.00 | 0.00 | 49 | 1015.6 |
| 20260504035108 | 62 | 162 | 0.0 | 0.0 | 0.00 | 0.00 | 0.00 | 49 | 1015.3 |